AB9HP Weather Reports


time (UTC)temp
C
wind
direction
speed
KPH
gust
KPH
rain 1hr
cm
rain 24hr
cm
rain mn
cm
humidity
%
barometer
mb
20260510101528 12 338 0.0 1.6 0.00 0.00 0.00 70 1013.6
20260510100019 12 338 0.0 3.2 0.00 0.00 0.00 71 1013.4
20260510094512 12 323 0.0 3.2 0.00 0.00 0.00 72 1013.2
20260510093009 12 328 0.0 4.8 0.00 0.00 0.00 72 1012.9
20260510091508 12 306 0.0 3.2 0.00 0.00 0.00 72 1013.1
20260510090011 12 296 0.0 1.6 0.00 0.00 0.00 70 1013.0
20260510084508 12 271 0.0 1.6 0.00 0.00 0.00 68 1013.2
20260510083005 12 266 0.0 1.6 0.00 0.00 0.00 65 1012.8
20260510081602 12 326 0.0 4.8 0.00 0.00 0.00 63 1012.3
20260510080054 12 309 0.0 6.4 0.00 0.00 0.00 63 1012.0
20260510074551 13 338 0.0 4.8 0.00 0.00 0.00 62 1011.9
20260510073047 13 332 0.0 4.8 0.00 0.00 0.00 62 1011.9
20260510071547 13 336 0.0 4.8 0.00 0.00 0.00 63 1012.0
20260510070049 13 296 0.0 6.4 0.00 0.00 0.00 62 1012.0
20260510064545 13 297 0.0 4.8 0.00 0.00 0.00 61 1011.9
20260510063041 13 263 0.0 6.4 0.00 0.00 0.00 61 1011.9
20260510061538 13 319 0.0 6.4 0.00 0.00 0.00 61 1011.5
20260510060037 13 320 0.0 4.8 0.00 0.00 0.00 61 1011.3
20260510054534 14 326 3.2 8.0 0.00 0.00 0.00 60 1011.3
20260510053032 14 316 0.0 4.8 0.00 0.00 0.00 61 1011.3
20260510051528 14 268 0.0 4.8 0.00 0.00 0.00 62 1011.0
20260510050030 14 284 0.0 1.6 0.00 0.00 0.00 61 1010.8
20260510044522 15 286 0.0 3.2 0.00 0.00 0.00 59 1010.5
20260510043018 15 288 0.0 9.7 0.00 0.00 0.00 58 1010.3
20260510041516 16 318 6.4 14.5 0.00 0.00 0.00 56 1010.1
20260510040011 16 4 6.4 19.3 0.00 0.00 0.00 56 1009.8
20260510034516 17 284 6.4 17.7 0.00 0.00 0.00 56 1009.7
20260510033005 17 296 4.8 16.1 0.00 0.00 0.00 55 1009.3
20260510031601 18 278 3.2 12.9 0.00 0.00 0.00 55 1009.0
20260510030058 18 211 6.4 20.9 0.00 0.00 0.00 58 1008.7
20260510024604 18 243 3.2 14.5 0.00 0.00 0.00 60 1008.4
20260510023054 18 249 1.6 12.9 0.00 0.00 0.00 65 1008.1
20260510021551 19 264 3.2 12.9 0.00 0.00 0.00 67 1007.9
20260510020053 19 217 3.2 9.7 0.00 0.00 0.00 70 1007.7
20260510014549 19 248 4.8 12.9 0.00 0.00 0.00 71 1007.5
20260510013047 19 251 6.4 14.5 0.00 0.00 0.00 70 1007.2
20260510011546 19 254 3.2 11.3 0.00 0.00 0.00 69 1006.9
20260510010044 20 242 4.8 14.5 0.00 0.00 0.00 68 1006.8
20260510004543 20 262 4.8 19.3 0.00 0.00 0.00 67 1006.6
20260510003054 20 228 4.8 16.1 0.00 0.00 0.00 67 1006.2
20260510001538 20 229 6.4 19.3 0.00 0.00 0.00 67 1006.0
20260510000039 21 259 6.4 20.9 0.00 0.00 0.00 64 1006.0
20260509234541 21 282 6.4 19.3 0.00 0.00 0.00 62 1005.9
20260509233036 22 234 9.7 27.4 0.00 0.00 0.00 60 1005.8
20260509231530 22 245 16.1 30.6 0.00 0.00 0.00 58 1005.8
20260509230032 21 242 6.4 22.5 0.00 0.00 0.00 59 1005.8
20260509224543 22 205 8.0 22.5 0.00 0.03 0.00 57 1005.7
20260509223027 21 216 14.5 25.7 0.00 0.03 0.00 58 1005.7
20260509221527 21 249 11.3 27.4 0.00 0.03 0.00 58 1005.6
20260509220023 21 228 12.9 30.6 0.00 0.03 0.00 57 1005.6
20260509214523 21 255 9.7 27.4 0.00 0.28 0.00 60 1005.4
20260509213020 22 224 14.5 35.4 0.00 0.28 0.00 57 1005.2
20260509211518 22 233 19.3 38.6 0.00 0.28 0.00 55 1005.3
20260509210018 22 201 14.5 40.2 0.00 0.28 0.00 58 1005.3
20260509204514 22 210 4.8 35.4 0.00 0.46 0.00 59 1005.4
20260509203012 22 292 14.5 37.0 0.00 0.46 0.00 57 1005.5
20260509201509 22 214 17.7 38.6 0.00 0.46 0.00 56 1005.6
20260509200009 22 259 14.5 32.2 0.00 0.46 0.00 56 1005.6
20260509194505 22 272 16.1 37.0 0.00 0.56 0.00 58 1005.7
20260509193007 21 214 16.1 35.4 0.00 0.56 0.00 60 1005.8
20260509191558 21 160 14.5 33.8 0.00 0.56 0.00 61 1005.9
20260509190057 21 233 11.3 37.0 0.00 0.56 0.00 64 1006.0
20260509184552 21 158 12.9 35.4 0.00 0.56 0.00 64 1006.1
20260509183051 21 229 14.5 32.2 0.00 0.56 0.00 64 1006.0
20260509181605 20 212 14.5 32.2 0.00 0.56 0.00 65 1006.1
20260509180110 20 214 19.3 35.4 0.00 0.56 0.00 65 1006.3
20260509174541 20 191 16.1 37.0 0.00 0.56 0.00 66 1006.6
20260509173043 20 193 14.5 35.4 0.00 0.56 0.00 67 1006.7
20260509171541 19 271 16.1 33.8 0.00 0.56 0.00 67 1006.7
20260509170045 19 152 16.1 35.4 0.00 0.56 0.00 69 1006.7
20260509164529 18 211 14.5 33.8 0.00 0.56 0.00 68 1006.4
20260509163027 18 240 8.0 30.6 0.00 0.56 0.00 71 1006.7
20260509161521 18 240 8.0 29.0 0.00 0.56 0.00 73 1006.7
20260509160020 18 221 14.5 24.1 0.00 0.56 0.00 72 1006.7
20260509154517 17 197 9.7 24.1 0.00 0.56 0.00 74 1006.8
20260509153017 17 223 14.5 25.7 0.00 0.56 0.00 73 1006.7
20260509151509 17 217 11.3 25.7 0.00 0.56 0.00 75 1006.8
20260509150008 16 210 9.7 25.7 0.00 0.56 0.00 76 1006.8
20260509144504 16 259 9.7 22.5 0.00 0.66 0.00 77 1007.0
20260509143110 16 271 8.0 24.1 0.00 0.66 0.00 79 1007.0
20260509141556 15 281 8.0 27.4 0.00 0.66 0.00 81 1007.2
20260509140056 15 210 3.2 20.9 0.00 0.66 0.00 83 1007.2
20260509134550 14 250 0.0 14.5 0.00 0.66 0.00 85 1007.1
20260509133057 13 249 3.2 20.9 0.00 0.66 0.00 86 1007.2
20260509131541 13 197 8.0 17.7 0.00 0.66 0.00 89 1007.3
20260509130040 13 248 4.8 16.1 0.00 0.66 0.00 90 1007.2
20260509124536 12 223 3.2 11.3 0.00 0.66 0.00 91 1007.2
20260509123034 12 251 3.2 17.7 0.00 0.66 0.00 91 1007.6
20260509121532 12 215 4.8 17.7 0.00 0.66 0.00 91 1007.7
20260509120026 12 236 4.8 12.9 0.00 0.66 0.00 92 1007.8
20260509114532 12 278 9.7 19.3 0.00 0.66 0.00 93 1007.6
20260509113021 12 105 3.2 17.7 0.00 0.66 0.00 93 1007.5
20260509111518 11 242 6.4 14.5 0.00 0.66 0.00 94 1007.1
20260509110017 11 240 6.4 14.5 0.00 0.66 0.00 94 1007.1
20260509104516 11 224 3.2 9.7 0.00 0.66 0.00 94 1007.2
20260509103014 11 218 1.6 9.7 0.00 0.66 0.00 94 1007.1